EW3803 Weather Reports


time (UTC)temp
C
wind
direction
speed
KPH
gust
KPH
rain 1hr
cm
rain 24hr
cm
rain mn
cm
humidity
%
barometer
mb
20200930030108 16 41 11.3 19.3 0.00 0.00 0.00 70 1016.0
20200930024629 16 46 11.3 19.3 0.00 0.00 0.00 70 1016.1
20200930023051 16 47 9.7 17.7 0.00 0.00 0.00 69 1016.1
20200930021629 16 47 9.7 16.1 0.00 0.00 0.00 69 1016.3
20200930020226 16 35 9.7 16.1 0.00 0.00 0.00 68 1016.4
20200930014634 16 23 9.7 14.5 0.00 0.00 0.00 68 1016.5
20200930013027 16 36 8.0 14.5 0.00 0.00 0.00 66 1016.7
20200930011601 15 42 4.8 11.3 0.00 0.00 0.00 44 1016.6
20200930010024 16 54 4.8 8.0 0.00 0.00 0.00 12 1016.7
20200930004519 16 175 1.6 4.8 0.00 0.00 0.00 6 1016.8
20200930003047 16 175 3.2 6.4 0.00 0.00 0.00 4 1016.8
20200930001653 16 175 3.2 8.0 0.00 0.00 0.00 6 1016.8
20200930000310 16 175 3.2 8.0 0.00 0.00 0.00 9 1016.9
20200929234729 16 175 3.2 4.8 0.00 0.00 0.00 10 1016.7
20200929233201 16 175 6.4 11.3 0.00 0.00 0.00 13 1016.7
20200929231645 16 175 1.6 4.8 0.00 0.00 0.00 16 1016.6
20200929230127 16 175 1.6 4.8 0.00 0.00 0.00 20 1016.6
20200929224629 16 175 1.6 6.4 0.00 0.00 0.00 23 1016.7
20200929223137 16 175 1.6 6.4 0.00 0.00 0.00 29 1016.6
20200929221645 16 175 3.2 6.4 0.00 0.00 0.00 35 1016.7
20200929220122 16 205 3.2 6.4 0.00 0.00 0.00 43 1016.8
20200929214631 17 205 1.6 4.8 0.00 0.00 0.00 47 1016.7
20200929213120 17 351 1.6 4.8 0.00 0.00 0.00 48 1016.7
20200929211612 17 360 0.0 1.6 0.00 0.00 0.00 46 1016.5
20200929210132 17 360 0.0 1.6 0.00 0.00 0.00 46 1016.4
20200929204640 17 360 1.6 3.2 0.00 0.00 0.00 45 1016.1
20200929203146 17 360 1.6 3.2 0.00 0.00 0.00 43 1016.1
20200929201629 17 360 1.6 3.2 0.00 0.00 0.00 41 1016.0
20200929200100 17 9 0.0 1.6 0.00 0.00 0.00 41 1015.8
20200929194708 17 11 1.6 4.8 0.00 0.00 0.00 39 1015.7
20200929193129 17 360 3.2 6.4 0.00 0.00 0.00 41 1015.7
20200929191515 17 15 4.8 12.9 0.00 0.00 0.00 43 1015.6
20200929190024 17 9 4.8 8.0 0.00 0.00 0.00 46 1015.5
20200929183020 18 342 4.8 12.9 0.00 0.00 0.00 55 1015.1
20200929181522 18 21 6.4 14.5 0.00 0.00 0.00 60 1015.1
20200929180021 19 346 8.0 14.5 0.00 0.00 0.00 63 1015.0
20200929174514 20 351 6.4 17.7 0.00 0.00 0.00 66 1014.9
20200929173000 20 360 8.0 17.7 0.00 0.00 0.00 66 1014.7
20200929171650 20 351 8.0 17.7 0.00 0.00 0.00 65 1014.9
20200929170228 20 319 9.7 17.7 0.00 0.00 0.00 63 1014.9
20200929164651 20 347 8.0 17.7 0.00 0.00 0.00 62 1014.9
20200929163252 20 338 12.9 20.9 0.00 0.00 0.00 63 1014.8
20200929161634 20 313 9.7 22.5 0.00 0.00 0.00 67 1014.7
20200929160425 21 338 12.9 20.9 0.00 0.00 0.00 68 1014.7
20200929154709 21 304 11.3 24.1 0.00 0.00 0.00 68 1014.7
20200929153150 21 296 14.5 22.5 0.00 0.00 0.00 69 1014.7
20200929151706 21 313 14.5 22.5 0.00 0.00 0.00 70 1014.7
20200929150149 21 305 17.7 24.1 0.00 0.00 0.00 69 1014.8
20200929144803 21 305 14.5 24.1 0.00 0.00 0.00 69 1014.9
20200929143235 21 316 14.5 22.5 0.00 0.00 0.00 69 1014.9
20200929141714 21 302 16.1 22.5 0.00 0.00 0.00 68 1015.0
20200929140215 22 321 8.0 19.3 0.00 0.00 0.00 68 1015.2
20200929134605 22 333 9.7 20.9 0.00 0.00 0.00 67 1015.3
20200929133115 21 351 12.9 20.9 0.00 0.00 0.00 68 1015.5
20200929131712 22 30 14.5 22.5 0.00 0.00 0.00 68 1015.5
20200929130105 21 311 11.3 20.9 0.00 0.00 0.00 69 1015.6
20200929124618 21 342 14.5 22.5 0.00 0.00 0.00 70 1015.7
20200929123158 21 280 12.9 22.5 0.00 0.00 0.00 68 1015.9
20200929121634 21 331 16.1 22.5 0.00 0.00 0.00 68 1015.9
20200929120135 21 323 14.5 20.9 0.00 0.00 0.00 69 1016.0
20200929114603 21 312 12.9 17.7 0.00 0.00 0.00 69 1016.2
20200929111612 20 351 12.9 19.3 0.00 0.00 0.00 68 1016.1
20200929110128 20 317 11.3 19.3 0.00 0.00 0.00 68 1016.2
20200929104544 20 351 14.5 19.3 0.00 0.00 0.00 68 1016.3
20200929103102 20 344 14.5 20.9 0.00 0.00 0.00 69 1016.4
20200929101620 20 18 11.3 17.7 0.00 0.00 0.00 69 1016.2
20200929100030 19 338 12.9 19.3 0.00 0.00 0.00 70 1016.3
20200929094603 20 351 9.7 16.1 0.00 0.00 0.00 69 1016.2
20200929093105 19 325 8.0 14.5 0.00 0.00 0.00 69 1016.1
20200929091558 19 317 8.0 14.5 0.00 0.00 0.00 69 1016.0
20200929090125 19 351 8.0 19.3 0.00 0.00 0.00 68 1016.0
20200929084529 18 20 11.3 19.3 0.00 0.00 0.00 69 1016.0
20200929083111 17 350 12.9 19.3 0.00 0.00 0.00 69 1016.1
20200929081533 17 38 12.9 24.1 0.00 0.00 0.00 69 1016.0
20200929080030 16 24 12.9 20.9 0.00 0.00 0.00 67 1015.8
20200929074529 16 36 12.9 20.9 0.00 0.00 0.00 65 1015.9
20200929073042 15 49 12.9 17.7 0.00 0.00 0.00 64 1015.9
20200929071527 15 37 12.9 19.3 0.00 0.00 0.00 64 1015.7
20200929070026 15 28 14.5 17.7 0.00 0.00 0.00 66 1015.5
20200929064553 16 49 11.3 19.3 0.00 0.00 0.00 67 1015.4
20200929063024 15 38 11.3 16.1 0.00 0.00 0.00 65 1015.2
20200929061530 15 53 9.7 16.1 0.00 0.00 0.00 62 1015.1
20200929060028 15 52 9.7 14.5 0.00 0.00 0.00 58 1015.0
20200929054539 15 57 9.7 16.1 0.00 0.00 0.00 56 1015.0
20200929053031 15 40 8.0 16.1 0.00 0.00 0.00 54 1015.0
20200929051519 14 59 8.0 16.1 0.00 0.00 0.00 50 1015.0
20200929050021 14 40 9.7 16.1 0.00 0.00 0.00 44 1015.0
20200929044517 13 51 9.7 16.1 0.00 0.00 0.00 40 1015.0
20200929043010 13 47 11.3 17.7 0.00 0.00 0.00 37 1015.0
20200929041629 13 37 8.0 14.5 0.00 0.00 0.00 36 1015.0
20200929040202 14 45 8.0 14.5 0.00 0.00 0.00 34 1015.0
20200929034748 14 15 8.0 14.5 0.00 0.00 0.00 32 1015.1
20200929033134 15 13 8.0 12.9 0.00 0.00 0.00 32 1015.0